sat.trackr.live / text

‹ back to catalog

STARLINK-37032

NORAD 68181 · 2026-050Q

PAYLOAD ACTIVE UNKNOWN

§ Identity

Operator
Country
US
Launch date
2026-03-14
Launch site
AFETR
Launch vehicle
Mass (kg)
RCS (m²)

Purposes: comms

External: N2YO · Heavens-Above · Gunter

§ Orbital elements

Epoch: 2026-05-24T15:17:49.998336Z

Period
93.58 min
Inclination
53.1585°
Eccentricity
0.0001113
Mean motion
15.38855205 rev/d
Perigee alt
448.7 km
Apogee alt
450.3 km
Semi-major
6,827.6 km
B*
1.1789e-3
RAAN
273.8026°
Arg perigee
70.4772°
Mean anomaly
289.6352°
Rev number
1,231

§ Raw data

STARLINK-370321 68181U 26050Q   26144.63738424  .00045867  00000+0  11789-2 0  99982 68181  53.1585 273.8026 0001113  70.4772 289.6352 15.38855205 12318

JSON: /api/v1/satellites/68181 · /tle

For live sub-satellite position, see the globe view (requires WebGL).

§ Visibility from observer

Set your observer location to see the next 7 days of passes ≥ 10°. The values pass through the URL so the page stays shareable.

No JS? Fill the form by hand. The geolocation button needs JavaScript.